Time,TemperatureF,DewpointF,PressureIn,WindDirection,WindDirectionDegrees,WindSpeedMPH,WindSpeedGustMPH,Humidity,HourlyPrecipIn,Conditions,Clouds,dailyrainin,SoftwareType,DateUTC
2013-01-24 00:02:00,54.8,34.4,30.11,SW,225,2.0,4.0,46,0.00,,---,0.00,VWS V14.01,2013-01-24 08:02:00,
2013-01-24 00:07:00,54.8,34.4,30.10,West,259,2.0,4.0,46,0.00,,---,0.00,VWS V14.01,2013-01-24 08:07:00,
2013-01-24 00:12:00,54.7,34.9,30.10,SW,236,4.0,5.0,47,0.00,,---,0.00,VWS V14.01,2013-01-24 08:12:00,
2013-01-24 00:17:00,54.8,35.5,30.10,WSW,243,2.0,5.0,48,0.00,,---,0.00,VWS V14.01,2013-01-24 08:17:00,
2013-01-24 00:22:00,54.9,36.1,30.10,SW,215,2.0,5.0,49,0.00,,---,0.00,VWS V14.01,2013-01-24 08:22:00,
2013-01-24 00:27:00,55.5,36.2,30.10,SW,233,1.0,6.0,48,0.00,,---,0.00,VWS V14.01,2013-01-24 08:27:00,
2013-01-24 00:32:00,55.5,36.2,30.10,SSE,163,3.0,6.0,48,0.00,,---,0.00,VWS V14.01,2013-01-24 08:32:00,
2013-01-24 00:37:00,55.6,36.8,30.10,SE,141,1.0,6.0,49,0.00,,---,0.00,VWS V14.01,2013-01-24 08:37:00,
2013-01-24 00:42:00,55.9,37.0,30.10,SSE,155,2.0,6.0,49,0.00,,---,0.00,VWS V14.01,2013-01-24 08:42:00,
2013-01-24 00:47:00,56.1,37.7,30.10,SE,128,4.0,6.0,50,0.00,,---,0.00,VWS V14.01,2013-01-24 08:47:00,
2013-01-24 00:52:00,56.3,37.9,30.10,South,181,0.0,6.0,50,0.00,,---,0.00,VWS V14.01,2013-01-24 08:52:00,
2013-01-24 00:57:00,56.2,38.3,30.09,SSW,207,3.0,6.0,51,0.00,,---,0.00,VWS V14.01,2013-01-24 08:57:00,
2013-01-24 01:03:00,56.2,38.8,30.09,SSW,207,1.0,4.0,52,0.00,,---,0.00,VWS V14.01,2013-01-24 09:03:00,
2013-01-24 01:08:00,56.1,38.7,30.09,South,181,0.0,4.0,52,0.00,,---,0.00,VWS V14.01,2013-01-24 09:08:00,
2013-01-24 01:13:00,56.0,39.6,30.09,NE,51,4.0,4.0,54,0.00,,---,0.00,VWS V14.01,2013-01-24 09:13:00,
2013-01-24 01:18:00,55.2,37.9,30.09,SE,138,0.0,4.0,52,0.00,,---,0.00,VWS V14.01,2013-01-24 09:18:00,
2013-01-24 01:23:00,54.9,39.0,30.10,SE,127,0.0,4.0,55,0.00,,---,0.00,VWS V14.01,2013-01-24 09:23:00,
2013-01-24 01:28:00,55.0,38.7,30.10,SE,128,0.0,4.0,54,0.00,,---,0.00,VWS V14.01,2013-01-24 09:28:00,
2013-01-24 01:33:00,54.8,38.5,30.10,NNE,28,4.0,4.0,54,0.00,,---,0.00,VWS V14.01,2013-01-24 09:33:00,
2013-01-24 01:38:00,53.9,37.7,30.10,North,349,1.0,4.0,54,0.00,,---,0.00,VWS V14.01,2013-01-24 09:38:00,
2013-01-24 01:43:00,53.3,36.6,30.10,North,360,4.0,5.0,53,0.00,,---,0.00,VWS V14.01,2013-01-24 09:43:00,
2013-01-24 01:48:00,52.3,36.6,30.10,NNW,330,1.0,8.0,55,0.00,,---,0.00,VWS V14.01,2013-01-24 09:48:00,
2013-01-24 01:53:00,51.6,37.3,30.10,North,11,1.0,8.0,58,0.00,,---,0.00,VWS V14.01,2013-01-24 09:53:00,
2013-01-24 01:58:00,51.0,38.0,30.10,NNW,341,2.0,8.0,61,0.00,,---,0.00,VWS V14.01,2013-01-24 09:58:00,
2013-01-24 02:03:00,50.5,38.4,30.10,NW,316,2.0,3.0,63,0.00,,---,0.00,VWS V14.01,2013-01-24 10:03:00,
2013-01-24 02:08:00,50.1,39.2,30.10,NNE,26,5.0,6.0,66,0.00,,---,0.00,VWS V14.01,2013-01-24 10:08:00,
2013-01-24 02:13:00,49.7,39.2,30.10,North,5,0.0,6.0,67,0.00,,---,0.00,VWS V14.01,2013-01-24 10:13:00,
2013-01-24 02:18:00,49.5,39.4,30.11,North,355,0.0,6.0,68,0.00,,---,0.00,VWS V14.01,2013-01-24 10:18:00,
2013-01-24 02:23:00,49.1,38.6,30.10,North,4,0.0,6.0,67,0.00,,---,0.00,VWS V14.01,2013-01-24 10:23:00,
2013-01-24 02:28:00,48.8,38.7,30.10,North,354,0.0,6.0,68,0.00,,---,0.00,VWS V14.01,2013-01-24 10:28:00,
2013-01-24 02:33:00,48.6,38.5,30.10,North,354,0.0,6.0,68,0.00,,---,0.00,VWS V14.01,2013-01-24 10:33:00,
2013-01-24 02:38:00,48.4,39.4,30.10,WSW,240,0.0,6.0,71,0.01,,---,0.01,VWS V14.01,2013-01-24 10:38:00,
2013-01-24 02:43:00,48.1,39.5,30.11,WSW,245,0.0,6.0,72,0.01,,---,0.01,VWS V14.01,2013-01-24 10:43:00,
2013-01-24 02:48:00,47.9,40.0,30.11,SW,221,0.0,6.0,74,0.01,,---,0.01,VWS V14.01,2013-01-24 10:48:00,
2013-01-24 02:54:00,47.9,40.4,30.11,SW,231,0.0,6.0,75,0.01,,---,0.01,VWS V14.01,2013-01-24 10:54:00,
2013-01-24 02:59:00,47.8,40.6,30.10,West,277,0.0,6.0,76,0.01,,---,0.01,VWS V14.01,2013-01-24 10:59:00,
2013-01-24 03:04:00,47.8,40.6,30.10,West,259,0.0,0.0,76,0.01,,---,0.01,VWS V14.01,2013-01-24 11:04:00,
2013-01-24 03:09:00,47.8,40.6,30.10,SW,222,0.0,0.0,76,0.01,,---,0.01,VWS V14.01,2013-01-24 11:09:00,
2013-01-24 03:14:00,47.7,40.8,30.10,SW,231,0.0,0.0,77,0.01,,---,0.01,VWS V14.01,2013-01-24 11:14:00,
2013-01-24 03:19:00,47.6,41.4,30.10,SW,222,0.0,0.0,79,0.01,,---,0.01,VWS V14.01,2013-01-24 11:19:00,
2013-01-24 03:24:00,47.5,42.0,30.10,SW,232,0.0,0.0,81,0.02,,---,0.02,VWS V14.01,2013-01-24 11:24:00,
2013-01-24 03:29:00,47.5,42.3,30.10,SW,226,0.0,0.0,82,0.02,,---,0.02,VWS V14.01,2013-01-24 11:29:00,
2013-01-24 03:34:00,47.5,42.0,30.10,SW,229,0.0,4.0,81,0.02,,---,0.02,VWS V14.01,2013-01-24 11:34:00,
2013-01-24 03:39:00,47.6,42.4,30.10,SW,229,0.0,4.0,82,0.02,,---,0.02,VWS V14.01,2013-01-24 11:39:00,
2013-01-24 03:44:00,47.6,42.4,30.10,SW,215,0.0,4.0,82,0.03,,---,0.03,VWS V14.01,2013-01-24 11:44:00,
2013-01-24 03:49:00,47.5,42.6,30.10,SW,221,0.0,4.0,83,0.03,,---,0.03,VWS V14.01,2013-01-24 11:49:00,
2013-01-24 03:54:00,47.3,42.7,30.09,SSW,197,0.0,4.0,84,0.04,,---,0.04,VWS V14.01,2013-01-24 11:54:00,
2013-01-24 03:59:00,47.2,42.9,30.09,SSW,210,0.0,4.0,85,0.04,,---,0.04,VWS V14.01,2013-01-24 11:59:00,
2013-01-24 04:04:00,47.2,43.2,30.09,SW,214,0.0,1.0,86,0.03,,---,0.04,VWS V14.01,2013-01-24 12:04:00,
2013-01-24 04:09:00,47.1,43.1,30.09,SW,228,0.0,2.0,86,0.03,,---,0.04,VWS V14.01,2013-01-24 12:09:00,
2013-01-24 04:14:00,47.0,43.0,30.09,WSW,250,0.0,3.0,86,0.03,,---,0.04,VWS V14.01,2013-01-24 12:14:00,
2013-01-24 04:19:00,47.1,43.1,30.09,WSW,240,1.0,3.0,86,0.04,,---,0.05,VWS V14.01,2013-01-24 12:19:00,
2013-01-24 04:24:00,47.1,43.1,30.09,West,281,0.0,3.0,86,0.04,,---,0.05,VWS V14.01,2013-01-24 12:24:00,
2013-01-24 04:29:00,47.1,43.1,30.09,WSW,253,0.0,3.0,86,0.04,,---,0.05,VWS V14.01,2013-01-24 12:29:00,
2013-01-24 04:34:00,47.1,43.1,30.09,West,278,0.0,3.0,86,0.05,,---,0.06,VWS V14.01,2013-01-24 12:34:00,
2013-01-24 04:39:00,47.1,43.4,30.10,West,267,0.0,3.0,87,0.05,,---,0.06,VWS V14.01,2013-01-24 12:39:00,
2013-01-24 04:44:00,47.1,43.4,30.09,SW,231,0.0,3.0,87,0.06,,---,0.07,VWS V14.01,2013-01-24 12:44:00,
2013-01-24 04:49:00,47.1,43.7,30.09,SSW,211,0.0,3.0,88,0.07,,---,0.08,VWS V14.01,2013-01-24 12:49:00,
2013-01-24 04:54:00,47.0,43.6,30.09,SSW,212,0.0,3.0,88,0.07,,---,0.08,VWS V14.01,2013-01-24 12:54:00,
2013-01-24 04:59:00,47.0,43.6,30.09,SSW,212,0.0,3.0,88,0.07,,---,0.08,VWS V14.01,2013-01-24 12:59:00,
2013-01-24 05:04:00,47.1,44.0,30.09,SSW,212,0.0,0.0,89,0.05,,---,0.09,VWS V14.01,2013-01-24 13:04:00,
2013-01-24 05:09:00,47.0,43.9,30.09,SSE,167,0.0,1.0,89,0.05,,---,0.09,VWS V14.01,2013-01-24 13:09:00,
2013-01-24 05:14:00,47.0,44.2,30.09,South,173,1.0,2.0,90,0.06,,---,0.10,VWS V14.01,2013-01-24 13:14:00,
2013-01-24 05:19:00,47.0,44.2,30.09,SSE,156,1.0,3.0,90,0.06,,---,0.10,VWS V14.01,2013-01-24 13:19:00,
2013-01-24 05:24:00,47.1,44.3,30.09,South,170,0.0,3.0,90,0.06,,---,0.10,VWS V14.01,2013-01-24 13:24:00,
2013-01-24 05:29:00,47.1,44.3,30.09,SSE,166,2.0,3.0,90,0.06,,---,0.10,VWS V14.01,2013-01-24 13:29:00,
2013-01-24 05:34:00,47.2,44.4,30.09,SSE,161,2.0,3.0,90,0.06,,---,0.10,VWS V14.01,2013-01-24 13:34:00,
2013-01-24 05:39:00,47.3,44.5,30.09,South,183,2.0,4.0,90,0.06,,---,0.10,VWS V14.01,2013-01-24 13:39:00,
2013-01-24 05:44:00,47.5,44.7,30.09,SSW,198,0.0,4.0,90,0.06,,---,0.10,VWS V14.01,2013-01-24 13:44:00,
2013-01-24 05:49:00,47.6,44.8,30.09,SSW,198,1.0,4.0,90,0.06,,---,0.10,VWS V14.01,2013-01-24 13:49:00,
2013-01-24 05:54:00,47.8,44.7,30.10,SSW,207,0.0,4.0,89,0.06,,---,0.10,VWS V14.01,2013-01-24 13:54:00,
2013-01-24 05:59:00,47.9,44.8,30.10,SSW,195,0.0,0.0,89,0.02,,---,0.10,VWS V14.01,2013-01-24 13:59:00,
2013-01-24 06:04:00,48.1,45.0,30.10,SSW,201,0.0,0.0,89,0.02,,---,0.10,VWS V14.01,2013-01-24 14:04:00,
2013-01-24 06:09:00,48.1,45.3,30.10,SSW,201,0.0,0.0,90,0.02,,---,0.10,VWS V14.01,2013-01-24 14:09:00,
2013-01-24 06:14:00,48.1,45.3,30.10,SSW,201,0.0,0.0,90,0.02,,---,0.10,VWS V14.01,2013-01-24 14:14:00,
2013-01-24 06:19:00,48.1,45.3,30.10,SSW,201,0.0,0.0,90,0.02,,---,0.10,VWS V14.01,2013-01-24 14:19:00,
2013-01-24 06:24:00,48.1,45.3,30.11,SW,219,0.0,0.0,90,0.02,,---,0.10,VWS V14.01,2013-01-24 14:24:00,
2013-01-24 06:29:00,48.1,45.3,30.11,SW,233,0.0,0.0,90,0.03,,---,0.11,VWS V14.01,2013-01-24 14:29:00,
2013-01-24 06:34:00,47.9,45.4,30.11,SW,233,0.0,0.0,91,0.03,,---,0.11,VWS V14.01,2013-01-24 14:34:00,
2013-01-24 06:40:00,47.8,45.3,30.12,SW,232,0.0,0.0,91,0.03,,---,0.11,VWS V14.01,2013-01-24 14:40:00,
2013-01-24 06:45:00,47.7,45.2,30.12,SW,232,0.0,0.0,91,0.03,,---,0.11,VWS V14.01,2013-01-24 14:45:00,
2013-01-24 06:50:00,47.6,45.1,30.12,West,270,0.0,0.0,91,0.04,,---,0.12,VWS V14.01,2013-01-24 14:50:00,
2013-01-24 06:55:00,47.6,45.1,30.12,West,270,0.0,0.0,91,0.04,,---,0.12,VWS V14.01,2013-01-24 14:55:00,
2013-01-24 07:00:00,47.6,45.4,30.12,West,269,0.0,0.0,92,0.02,,---,0.12,VWS V14.01,2013-01-24 15:00:00,
2013-01-24 07:05:00,47.5,45.3,30.12,West,270,0.0,0.0,92,0.02,,---,0.12,VWS V14.01,2013-01-24 15:05:00,
2013-01-24 07:10:00,47.5,45.3,30.12,West,270,0.0,0.0,92,0.02,,---,0.12,VWS V14.01,2013-01-24 15:10:00,
2013-01-24 07:15:00,47.6,45.4,30.12,West,264,0.0,0.0,92,0.02,,---,0.12,VWS V14.01,2013-01-24 15:15:00,
2013-01-24 07:20:00,47.7,45.5,30.12,SSW,210,0.0,0.0,92,0.02,,---,0.12,VWS V14.01,2013-01-24 15:20:00,
2013-01-24 07:25:00,47.8,45.6,30.12,SSW,210,0.0,0.0,92,0.02,,---,0.12,VWS V14.01,2013-01-24 15:25:00,
2013-01-24 07:30:00,47.9,46.0,30.12,SW,214,0.0,0.0,93,0.02,,---,0.12,VWS V14.01,2013-01-24 15:30:00,
2013-01-24 07:35:00,48.0,46.1,30.12,SW,224,0.0,2.0,93,0.02,,---,0.12,VWS V14.01,2013-01-24 15:35:00,
2013-01-24 07:40:00,48.1,46.2,30.13,SSW,210,0.0,2.0,93,0.02,,---,0.12,VWS V14.01,2013-01-24 15:40:00,
2013-01-24 07:45:00,48.2,46.3,30.13,SW,217,2.0,2.0,93,0.02,,---,0.12,VWS V14.01,2013-01-24 15:45:00,
2013-01-24 07:50:00,48.3,46.4,30.14,SW,215,3.0,3.0,93,0.02,,---,0.12,VWS V14.01,2013-01-24 15:50:00,
2013-01-24 07:55:00,48.3,46.1,30.14,WSW,257,1.0,4.0,92,0.03,,---,0.13,VWS V14.01,2013-01-24 15:55:00,
2013-01-24 08:00:00,48.3,46.1,30.14,WSW,256,3.0,3.0,92,0.01,,---,0.13,VWS V14.01,2013-01-24 16:00:00,
2013-01-24 08:05:00,48.3,46.1,30.14,WSW,243,2.0,4.0,92,0.01,,---,0.13,VWS V14.01,2013-01-24 16:05:00,
2013-01-24 08:10:00,48.3,46.1,30.14,WSW,243,2.0,4.0,92,0.02,,---,0.14,VWS V14.01,2013-01-24 16:10:00,
2013-01-24 08:15:00,48.3,45.8,30.15,WSW,245,2.0,4.0,91,0.02,,---,0.14,VWS V14.01,2013-01-24 16:15:00,
2013-01-24 08:20:00,48.3,46.1,30.15,WSW,257,2.0,4.0,92,0.02,,---,0.14,VWS V14.01,2013-01-24 16:20:00,
2013-01-24 08:25:00,48.3,45.8,30.15,WSW,252,3.0,4.0,91,0.02,,---,0.14,VWS V14.01,2013-01-24 16:25:00,
2013-01-24 08:30:00,48.4,45.9,30.16,WSW,240,4.0,4.0,91,0.03,,---,0.15,VWS V14.01,2013-01-24 16:30:00,
2013-01-24 08:35:00,48.5,46.0,30.16,WSW,239,2.0,4.0,91,0.03,,---,0.15,VWS V14.01,2013-01-24 16:35:00,
2013-01-24 08:40:00,48.6,46.1,30.17,WSW,255,3.0,4.0,91,0.03,,---,0.15,VWS V14.01,2013-01-24 16:40:00,
2013-01-24 08:45:00,48.7,46.5,30.17,WSW,257,0.0,4.0,92,0.04,,---,0.16,VWS V14.01,2013-01-24 16:45:00,
2013-01-24 08:50:00,48.8,46.3,30.17,WSW,243,1.0,4.0,91,0.05,,---,0.17,VWS V14.01,2013-01-24 16:50:00,
2013-01-24 08:55:00,48.8,46.3,30.16,WSW,252,0.0,4.0,91,0.05,,---,0.17,VWS V14.01,2013-01-24 16:55:00,
2013-01-24 09:00:00,48.8,46.3,30.16,WSW,238,0.0,0.0,91,0.05,,---,0.18,VWS V14.01,2013-01-24 17:00:00,
2013-01-24 09:05:00,48.9,46.4,30.16,WSW,238,0.0,0.0,91,0.06,,---,0.19,VWS V14.01,2013-01-24 17:05:00,
2013-01-24 09:10:00,49.0,46.2,30.15,South,169,0.0,0.0,90,0.07,,---,0.20,VWS V14.01,2013-01-24 17:10:00,
2013-01-24 09:15:00,49.1,46.3,30.15,East,81,1.0,3.0,90,0.07,,---,0.20,VWS V14.01,2013-01-24 17:15:00,
2013-01-24 09:20:00,49.2,46.7,30.15,ESE,118,3.0,4.0,91,0.08,,---,0.21,VWS V14.01,2013-01-24 17:20:00,
2013-01-24 09:25:00,49.3,46.8,30.16,SW,219,3.0,4.0,91,0.08,,---,0.21,VWS V14.01,2013-01-24 17:25:00,
2013-01-24 09:30:00,49.5,46.7,30.18,WSW,240,2.0,5.0,90,0.08,,---,0.21,VWS V14.01,2013-01-24 17:30:00,
2013-01-24 09:35:00,49.6,47.1,30.18,SW,226,0.0,5.0,91,0.08,,---,0.21,VWS V14.01,2013-01-24 17:35:00,
2013-01-24 09:40:00,49.9,47.4,30.18,SE,142,0.0,5.0,91,0.08,,---,0.21,VWS V14.01,2013-01-24 17:40:00,
2013-01-24 09:45:00,49.7,46.3,30.18,East,101,0.0,5.0,88,0.08,,---,0.21,VWS V14.01,2013-01-24 17:45:00,
2013-01-24 09:50:00,49.8,46.1,30.17,East,99,0.0,5.0,87,0.08,,---,0.21,VWS V14.01,2013-01-24 17:50:00,
2013-01-24 09:55:00,49.9,45.9,30.18,ENE,77,0.0,5.0,86,0.08,,---,0.21,VWS V14.01,2013-01-24 17:55:00,
2013-01-24 10:00:00,50.1,46.1,30.18,SE,142,0.0,0.0,86,0.03,,---,0.21,VWS V14.01,2013-01-24 18:00:00,
2013-01-24 10:05:00,50.2,45.9,30.18,SE,143,0.0,0.0,85,0.03,,---,0.21,VWS V14.01,2013-01-24 18:05:00,
2013-01-24 10:10:00,50.4,46.4,30.18,SE,143,0.0,0.0,86,0.03,,---,0.21,VWS V14.01,2013-01-24 18:10:00,
2013-01-24 10:15:00,50.4,46.1,30.19,SW,217,0.0,0.0,85,0.03,,---,0.21,VWS V14.01,2013-01-24 18:15:00,
2013-01-24 10:20:00,50.4,46.1,30.19,SW,217,0.0,0.0,85,0.03,,---,0.21,VWS V14.01,2013-01-24 18:20:00,
2013-01-24 10:25:00,50.5,46.2,30.19,West,270,0.0,1.0,85,0.03,,---,0.21,VWS V14.01,2013-01-24 18:25:00,
2013-01-24 10:31:00,50.6,46.3,30.19,West,274,0.0,1.0,85,0.03,,---,0.21,VWS V14.01,2013-01-24 18:31:00,
2013-01-24 10:36:00,50.6,46.3,30.19,NW,304,1.0,2.0,85,0.03,,---,0.21,VWS V14.01,2013-01-24 18:36:00,
2013-01-24 10:41:00,50.6,46.0,30.19,NNW,330,2.0,3.0,84,0.03,,---,0.21,VWS V14.01,2013-01-24 18:41:00,
2013-01-24 10:46:00,50.6,46.0,30.19,NW,321,0.0,3.0,84,0.03,,---,0.21,VWS V14.01,2013-01-24 18:46:00,
2013-01-24 10:51:00,50.8,46.2,30.19,NNE,28,2.0,3.0,84,0.03,,---,0.21,VWS V14.01,2013-01-24 18:51:00,
2013-01-24 10:56:00,50.9,46.2,30.19,North,9,0.0,3.0,84,0.04,,---,0.22,VWS V14.01,2013-01-24 18:56:00,
2013-01-24 11:01:00,50.8,46.2,30.18,NNW,333,1.0,2.0,84,0.01,,---,0.22,VWS V14.01,2013-01-24 19:01:00,
2013-01-24 11:06:00,50.7,46.4,30.18,North,359,1.0,3.0,85,0.01,,---,0.22,VWS V14.01,2013-01-24 19:06:00,
2013-01-24 11:11:00,50.7,46.4,30.18,NNE,15,3.0,5.0,85,0.01,,---,0.22,VWS V14.01,2013-01-24 19:11:00,
2013-01-24 11:16:00,50.8,46.5,30.18,NNE,19,0.0,5.0,85,0.01,,---,0.22,VWS V14.01,2013-01-24 19:16:00,
2013-01-24 11:21:00,51.2,47.2,30.17,NNW,335,0.0,5.0,86,0.01,,---,0.22,VWS V14.01,2013-01-24 19:21:00,
2013-01-24 11:26:00,51.5,46.8,30.17,WNW,301,0.0,5.0,84,0.01,,---,0.22,VWS V14.01,2013-01-24 19:26:00,
2013-01-24 11:31:00,51.6,46.6,30.17,WNW,302,0.0,5.0,83,0.01,,---,0.22,VWS V14.01,2013-01-24 19:31:00,
2013-01-24 11:36:00,51.9,46.9,30.17,NNE,15,0.0,5.0,83,0.01,,---,0.22,VWS V14.01,2013-01-24 19:36:00,
2013-01-24 11:41:00,51.7,46.7,30.17,NNE,19,0.0,5.0,83,0.01,,---,0.22,VWS V14.01,2013-01-24 19:41:00,
2013-01-24 11:46:00,51.8,46.5,30.16,West,266,0.0,5.0,82,0.01,,---,0.22,VWS V14.01,2013-01-24 19:46:00,
2013-01-24 11:51:00,51.8,46.8,30.16,NE,41,0.0,5.0,83,0.01,,---,0.22,VWS V14.01,2013-01-24 19:51:00,
2013-01-24 11:56:00,51.8,46.8,30.16,NE,51,0.0,5.0,83,0.01,,---,0.22,VWS V14.01,2013-01-24 19:56:00,
2013-01-24 12:01:00,51.9,46.9,30.16,NW,310,1.0,1.0,83,0.00,,---,0.22,VWS V14.01,2013-01-24 20:01:00,
2013-01-24 12:06:00,51.9,46.6,30.16,NW,307,0.0,3.0,82,0.00,,---,0.22,VWS V14.01,2013-01-24 20:06:00,
2013-01-24 12:11:00,52.0,46.7,30.16,North,355,0.0,3.0,82,0.00,,---,0.22,VWS V14.01,2013-01-24 20:11:00,
2013-01-24 12:16:00,52.4,47.4,30.16,NNE,28,2.0,3.0,83,0.00,,---,0.22,VWS V14.01,2013-01-24 20:16:00,
2013-01-24 12:21:00,52.5,47.2,30.15,NNW,338,3.0,4.0,82,0.00,,---,0.22,VWS V14.01,2013-01-24 20:21:00,
2013-01-24 12:26:00,52.3,47.0,30.15,NE,35,0.0,4.0,82,0.00,,---,0.22,VWS V14.01,2013-01-24 20:26:00,
2013-01-24 12:31:00,52.2,47.2,30.15,North,352,1.0,4.0,83,0.00,,---,0.22,VWS V14.01,2013-01-24 20:31:00,
2013-01-24 12:36:00,52.2,47.2,30.15,WNW,302,3.0,4.0,83,0.00,,---,0.22,VWS V14.01,2013-01-24 20:36:00,
2013-01-24 12:41:00,52.2,47.2,30.15,NW,305,1.0,5.0,83,0.00,,---,0.22,VWS V14.01,2013-01-24 20:41:00,
2013-01-24 12:46:00,52.2,47.2,30.15,NW,308,1.0,5.0,83,0.00,,---,0.22,VWS V14.01,2013-01-24 20:46:00,
2013-01-24 12:51:00,52.4,47.7,30.14,WNW,285,2.0,5.0,84,0.00,,---,0.22,VWS V14.01,2013-01-24 20:51:00,
2013-01-24 12:56:00,52.5,47.5,30.14,WNW,285,1.0,5.0,83,0.00,,---,0.22,VWS V14.01,2013-01-24 20:56:00,
2013-01-24 13:01:00,52.6,47.6,30.14,WSW,256,0.0,2.0,83,0.00,,---,0.22,VWS V14.01,2013-01-24 21:01:00,
2013-01-24 13:06:00,53.0,48.0,30.14,ESE,115,0.0,2.0,83,0.00,,---,0.22,VWS V14.01,2013-01-24 21:06:00,
2013-01-24 13:11:00,53.5,48.5,30.14,NNE,28,0.0,2.0,83,0.00,,---,0.22,VWS V14.01,2013-01-24 21:11:00,
2013-01-24 13:16:00,53.5,48.2,30.14,West,267,0.0,3.0,82,0.00,,---,0.22,VWS V14.01,2013-01-24 21:16:00,
2013-01-24 13:21:00,54.0,48.6,30.13,SSE,155,0.0,3.0,82,0.00,,---,0.22,VWS V14.01,2013-01-24 21:21:00,
2013-01-24 13:26:00,54.4,48.7,30.13,East,94,0.0,3.0,81,0.00,,---,0.22,VWS V14.01,2013-01-24 21:26:00,
2013-01-24 13:31:00,54.3,47.9,30.13,West,270,1.0,3.0,79,0.00,,---,0.22,VWS V14.01,2013-01-24 21:31:00,
2013-01-24 13:36:00,53.9,48.2,30.12,WNW,288,0.0,3.0,81,0.00,,---,0.22,VWS V14.01,2013-01-24 21:36:00,
2013-01-24 13:41:00,53.9,48.2,30.13,WNW,291,0.0,4.0,81,0.00,,---,0.22,VWS V14.01,2013-01-24 21:41:00,
2013-01-24 13:47:00,53.6,48.2,30.13,WNW,301,0.0,4.0,82,0.00,,---,0.22,VWS V14.01,2013-01-24 21:47:00,
2013-01-24 13:52:00,53.6,48.2,30.13,NW,318,2.0,4.0,82,0.00,,---,0.22,VWS V14.01,2013-01-24 21:52:00,
2013-01-24 13:57:00,53.5,48.2,30.13,WNW,295,0.0,4.0,82,0.00,,---,0.22,VWS V14.01,2013-01-24 21:57:00,
2013-01-24 14:02:00,53.3,48.3,30.13,NNW,334,3.0,3.0,83,0.00,,---,0.22,VWS V14.01,2013-01-24 22:02:00,
2013-01-24 14:07:00,53.3,48.3,30.13,NW,309,2.0,4.0,83,0.00,,---,0.22,VWS V14.01,2013-01-24 22:07:00,
2013-01-24 14:12:00,53.3,48.3,30.13,NNE,15,0.0,4.0,83,0.00,,---,0.22,VWS V14.01,2013-01-24 22:12:00,
2013-01-24 14:17:00,53.4,48.0,30.13,NW,309,0.0,4.0,82,0.00,,---,0.22,VWS V14.01,2013-01-24 22:17:00,
2013-01-24 14:22:00,53.3,48.0,30.13,NNE,20,0.0,4.0,82,0.00,,---,0.22,VWS V14.01,2013-01-24 22:22:00,
2013-01-24 14:27:00,53.3,48.0,30.13,NNE,18,0.0,4.0,82,0.00,,---,0.22,VWS V14.01,2013-01-24 22:27:00,
2013-01-24 14:32:00,53.3,48.3,30.12,NNE,12,1.0,4.0,83,0.00,,---,0.22,VWS V14.01,2013-01-24 22:32:00,
2013-01-24 14:37:00,53.5,48.2,30.13,NNE,17,2.0,4.0,82,0.00,,---,0.22,VWS V14.01,2013-01-24 22:37:00,
2013-01-24 14:42:00,53.5,48.5,30.12,NE,36,1.0,4.0,83,0.00,,---,0.22,VWS V14.01,2013-01-24 22:42:00,
2013-01-24 14:47:00,53.4,48.4,30.12,NE,44,0.0,4.0,83,0.00,,---,0.22,VWS V14.01,2013-01-24 22:47:00,
2013-01-24 14:52:00,53.6,48.6,30.12,East,89,1.0,4.0,83,0.00,,---,0.22,VWS V14.01,2013-01-24 22:52:00,
2013-01-24 14:57:00,53.8,48.8,30.12,NE,42,0.0,4.0,83,0.00,,---,0.22,VWS V14.01,2013-01-24 22:57:00,
2013-01-24 15:02:00,53.8,48.8,30.12,NNE,27,0.0,1.0,83,0.00,,---,0.22,VWS V14.01,2013-01-24 23:02:00,
2013-01-24 15:07:00,53.7,48.3,30.12,NNW,342,0.0,1.0,82,0.00,,---,0.22,VWS V14.01,2013-01-24 23:07:00,
2013-01-24 15:12:00,53.7,48.7,30.12,NE,40,0.0,1.0,83,0.00,,---,0.22,VWS V14.01,2013-01-24 23:12:00,
2013-01-24 15:17:00,53.7,48.7,30.13,WNW,283,0.0,1.0,83,0.00,,---,0.22,VWS V14.01,2013-01-24 23:17:00,
2013-01-24 15:22:00,53.7,48.7,30.13,North,359,1.0,3.0,83,0.00,,---,0.22,VWS V14.01,2013-01-24 23:22:00,
2013-01-24 15:27:00,53.6,48.6,30.13,North,1,4.0,4.0,83,0.00,,---,0.22,VWS V14.01,2013-01-24 23:27:00,
2013-01-24 15:32:00,53.6,48.6,30.13,NNE,15,0.0,4.0,83,0.00,,---,0.22,VWS V14.01,2013-01-24 23:32:00,
2013-01-24 15:37:00,53.5,48.5,30.13,NE,53,1.0,4.0,83,0.00,,---,0.22,VWS V14.01,2013-01-24 23:37:00,
2013-01-24 15:42:00,53.6,48.6,30.13,NNW,338,1.0,4.0,83,0.00,,---,0.22,VWS V14.01,2013-01-24 23:42:00,
2013-01-24 15:47:00,53.6,48.6,30.13,NNE,20,0.0,4.0,83,0.00,,---,0.22,VWS V14.01,2013-01-24 23:47:00,
2013-01-24 15:52:00,53.6,48.2,30.13,WNW,300,2.0,4.0,82,0.00,,---,0.22,VWS V14.01,2013-01-24 23:52:00,
2013-01-24 15:57:00,53.5,48.5,30.13,NW,311,1.0,4.0,83,0.00,,---,0.22,VWS V14.01,2013-01-24 23:57:00,
2013-01-24 16:02:00,53.6,48.6,30.13,SW,229,0.0,1.0,83,0.00,,---,0.22,VWS V14.01,2013-01-25 00:02:00,
2013-01-24 16:07:00,53.6,48.6,30.13,SW,228,0.0,1.0,83,0.00,,---,0.22,VWS V14.01,2013-01-25 00:07:00,
2013-01-24 16:12:00,53.6,48.6,30.13,SW,228,0.0,1.0,83,0.00,,---,0.22,VWS V14.01,2013-01-25 00:12:00,
2013-01-24 16:17:00,53.7,48.3,30.13,NNE,32,1.0,4.0,82,0.00,,---,0.22,VWS V14.01,2013-01-25 00:17:00,
2013-01-24 16:22:00,53.6,48.6,30.14,NE,42,0.0,4.0,83,0.00,,---,0.22,VWS V14.01,2013-01-25 00:22:00,
2013-01-24 16:27:00,53.5,48.5,30.14,NNE,26,2.0,4.0,83,0.00,,---,0.22,VWS V14.01,2013-01-25 00:27:00,
2013-01-24 16:32:00,53.5,48.5,30.14,NNE,33,1.0,4.0,83,0.00,,---,0.22,VWS V14.01,2013-01-25 00:32:00,
2013-01-24 16:37:00,53.4,48.7,30.14,NE,42,1.0,4.0,84,0.00,,---,0.22,VWS V14.01,2013-01-25 00:37:00,
2013-01-24 16:42:00,53.4,48.4,30.14,NE,44,1.0,4.0,83,0.00,,---,0.22,VWS V14.01,2013-01-25 00:42:00,
2013-01-24 16:47:00,53.3,48.3,30.14,North,3,0.0,4.0,83,0.00,,---,0.22,VWS V14.01,2013-01-25 00:47:00,
2013-01-24 16:52:00,53.3,48.3,30.14,East,96,0.0,4.0,83,0.00,,---,0.22,VWS V14.01,2013-01-25 00:52:00,
2013-01-24 16:57:00,53.2,48.2,30.14,ESE,110,0.0,4.0,83,0.00,,---,0.22,VWS V14.01,2013-01-25 00:57:00,
2013-01-24 17:02:00,53.2,48.2,30.14,ESE,110,0.0,0.0,83,0.00,,---,0.22,VWS V14.01,2013-01-25 01:02:00,
2013-01-24 17:07:00,53.2,48.2,30.14,ESE,110,0.0,0.0,83,0.00,,---,0.22,VWS V14.01,2013-01-25 01:07:00,
2013-01-24 17:12:00,53.0,48.3,30.15,ESE,110,0.0,0.0,84,0.00,,---,0.22,VWS V14.01,2013-01-25 01:12:00,
2013-01-24 17:17:00,52.9,48.2,30.15,ESE,110,0.0,0.0,84,0.00,,---,0.22,VWS V14.01,2013-01-25 01:17:00,
2013-01-24 17:22:00,52.8,48.1,30.15,ESE,110,0.0,0.0,84,0.00,,---,0.22,VWS V14.01,2013-01-25 01:22:00,
2013-01-24 17:27:00,52.8,48.1,30.15,ESE,110,0.0,0.0,84,0.00,,---,0.22,VWS V14.01,2013-01-25 01:27:00,
2013-01-24 17:32:00,52.7,48.0,30.15,ESE,110,0.0,0.0,84,0.00,,---,0.22,VWS V14.01,2013-01-25 01:32:00,
2013-01-24 17:37:00,52.6,48.2,30.15,ESE,110,0.0,0.0,85,0.00,,---,0.22,VWS V14.01,2013-01-25 01:37:00,
2013-01-24 17:42:00,52.5,48.1,30.15,ESE,110,0.0,0.0,85,0.00,,---,0.22,VWS V14.01,2013-01-25 01:42:00,
2013-01-24 17:47:00,52.5,48.1,30.15,ESE,110,0.0,0.0,85,0.00,,---,0.22,VWS V14.01,2013-01-25 01:47:00,
2013-01-24 17:52:00,52.4,48.0,30.15,ESE,110,0.0,0.0,85,0.00,,---,0.22,VWS V14.01,2013-01-25 01:52:00,
2013-01-24 17:57:00,52.3,48.2,30.15,ESE,110,0.0,0.0,86,0.00,,---,0.22,VWS V14.01,2013-01-25 01:57:00,
2013-01-24 18:02:00,52.2,48.2,30.15,ESE,109,0.0,0.0,86,0.00,,---,0.22,VWS V14.01,2013-01-25 02:02:00,
2013-01-24 18:07:00,52.0,48.0,30.15,ESE,108,0.0,0.0,86,0.00,,---,0.22,VWS V14.01,2013-01-25 02:07:00,
2013-01-24 18:12:00,51.9,47.8,30.15,ESE,109,0.0,0.0,86,0.00,,---,0.22,VWS V14.01,2013-01-25 02:12:00,
2013-01-24 18:18:00,51.8,47.8,30.15,ESE,109,0.0,0.0,86,0.00,,---,0.22,VWS V14.01,2013-01-25 02:18:00,
2013-01-24 18:23:00,51.6,47.6,30.16,ESE,109,0.0,0.0,86,0.00,,---,0.22,VWS V14.01,2013-01-25 02:23:00,
2013-01-24 18:28:00,51.4,47.7,30.16,ESE,109,0.0,0.0,87,0.00,,---,0.22,VWS V14.01,2013-01-25 02:28:00,
2013-01-24 18:33:00,51.1,47.4,30.16,ESE,109,0.0,0.0,87,0.00,,---,0.22,VWS V14.01,2013-01-25 02:33:00,
2013-01-24 18:38:00,51.0,47.6,30.16,ESE,109,0.0,0.0,88,0.00,,---,0.22,VWS V14.01,2013-01-25 02:38:00,
2013-01-24 18:43:00,51.1,47.7,30.16,SW,231,0.0,0.0,88,0.00,,---,0.22,VWS V14.01,2013-01-25 02:43:00,
2013-01-24 18:48:00,51.2,47.8,30.16,SW,231,0.0,0.0,88,0.00,,---,0.22,VWS V14.01,2013-01-25 02:48:00,
2013-01-24 18:53:00,51.1,47.7,30.16,SW,221,0.0,0.0,88,0.00,,---,0.22,VWS V14.01,2013-01-25 02:53:00,
2013-01-24 18:58:00,51.0,47.6,30.16,SW,222,1.0,2.0,88,0.00,,---,0.22,VWS V14.01,2013-01-25 02:58:00,
2013-01-24 19:03:00,50.9,47.8,30.15,SW,233,1.0,2.0,89,0.00,,---,0.22,VWS V14.01,2013-01-25 03:03:00,
2013-01-24 19:08:00,50.9,47.8,30.16,SW,236,1.0,2.0,89,0.00,,---,0.22,VWS V14.01,2013-01-25 03:08:00,
2013-01-24 19:13:00,51.1,48.0,30.16,SW,222,0.0,2.0,89,0.00,,---,0.22,VWS V14.01,2013-01-25 03:13:00,
2013-01-24 19:18:00,51.3,48.2,30.17,SW,222,1.0,2.0,89,0.00,,---,0.22,VWS V14.01,2013-01-25 03:18:00,
2013-01-24 19:23:00,51.5,48.1,30.17,WSW,238,0.0,2.0,88,0.00,,---,0.22,VWS V14.01,2013-01-25 03:23:00,
2013-01-24 19:28:00,51.7,48.3,30.17,SW,233,0.0,2.0,88,0.00,,---,0.22,VWS V14.01,2013-01-25 03:28:00,
2013-01-24 19:33:00,51.8,48.4,30.17,WSW,238,0.0,2.0,88,0.00,,---,0.22,VWS V14.01,2013-01-25 03:33:00,
2013-01-24 19:38:00,52.0,48.6,30.17,WSW,240,0.0,2.0,88,0.00,,---,0.22,VWS V14.01,2013-01-25 03:38:00,
2013-01-24 19:43:00,52.1,48.7,30.16,WSW,240,0.0,2.0,88,0.00,,---,0.22,VWS V14.01,2013-01-25 03:43:00,
2013-01-24 19:48:00,52.1,48.4,30.16,WSW,240,0.0,2.0,87,0.00,,---,0.22,VWS V14.01,2013-01-25 03:48:00,
2013-01-24 19:53:00,52.1,48.4,30.17,WSW,240,0.0,2.0,87,0.00,,---,0.22,VWS V14.01,2013-01-25 03:53:00,
2013-01-24 19:58:00,52.0,48.6,30.17,WNW,293,0.0,2.0,88,0.00,,---,0.22,VWS V14.01,2013-01-25 03:58:00,
2013-01-24 20:03:00,51.9,48.5,30.17,NW,308,0.0,0.0,88,0.00,,---,0.22,VWS V14.01,2013-01-25 04:03:00,
2013-01-24 20:08:00,51.8,48.7,30.17,NW,308,0.0,0.0,89,0.00,,---,0.22,VWS V14.01,2013-01-25 04:08:00,
2013-01-24 20:13:00,51.8,48.7,30.17,NW,308,0.0,0.0,89,0.00,,---,0.22,VWS V14.01,2013-01-25 04:13:00,
2013-01-24 20:18:00,51.8,48.7,30.17,NW,307,0.0,0.0,89,0.00,,---,0.22,VWS V14.01,2013-01-25 04:18:00,
2013-01-24 20:23:00,51.8,48.7,30.18,NW,308,0.0,0.0,89,0.00,,---,0.22,VWS V14.01,2013-01-25 04:23:00,
2013-01-24 20:28:00,51.8,48.7,30.18,WNW,303,0.0,0.0,89,0.00,,---,0.22,VWS V14.01,2013-01-25 04:28:00,
2013-01-24 20:33:00,51.9,48.8,30.18,NE,56,0.0,0.0,89,0.00,,---,0.22,VWS V14.01,2013-01-25 04:33:00,
2013-01-24 20:38:00,51.8,48.7,30.17,NE,56,0.0,1.0,89,0.00,,---,0.22,VWS V14.01,2013-01-25 04:38:00,
2013-01-24 20:43:00,51.8,48.7,30.18,NE,51,0.0,1.0,89,0.00,,---,0.22,VWS V14.01,2013-01-25 04:43:00,
2013-01-24 20:48:00,51.9,48.8,30.18,NE,51,0.0,1.0,89,0.00,,---,0.22,VWS V14.01,2013-01-25 04:48:00,
2013-01-24 20:53:00,51.9,48.8,30.18,NNW,347,0.0,1.0,89,0.00,,---,0.22,VWS V14.01,2013-01-25 04:53:00,
2013-01-24 20:58:00,52.0,48.9,30.18,SW,233,0.0,1.0,89,0.00,,---,0.22,VWS V14.01,2013-01-25 04:58:00,
2013-01-24 21:01:00,52.0,48.9,30.18,SW,233,0.0,1.0,89,0.00,,---,0.22,VWS V14.01,2013-01-25 05:01:00,
2013-01-24 21:04:00,52.0,48.9,30.18,SW,233,0.0,1.0,89,0.00,,---,0.22,VWS V14.01,2013-01-25 05:04:00,
2013-01-24 21:05:00,52.0,48.9,30.18,SW,233,0.0,1.0,89,0.00,,---,0.22,VWS V14.01,2013-01-25 05:05:00,
2013-01-24 21:08:00,52.0,48.9,30.18,SW,233,0.0,1.0,89,0.00,,---,0.22,VWS V14.01,2013-01-25 05:08:00,
2013-01-24 21:13:00,52.1,49.0,30.18,SW,233,0.0,1.0,89,0.00,,---,0.22,VWS V14.01,2013-01-25 05:13:00,
2013-01-24 21:18:00,52.1,49.0,30.18,SW,233,0.0,1.0,89,0.00,,---,0.22,VWS V14.01,2013-01-25 05:18:00,
2013-01-24 21:23:00,52.0,48.9,30.18,SSW,200,0.0,1.0,89,0.00,,---,0.22,VWS V14.01,2013-01-25 05:23:00,
2013-01-24 21:28:00,52.0,48.9,30.18,SSW,200,0.0,1.0,89,0.00,,---,0.22,VWS V14.01,2013-01-25 05:28:00,
2013-01-24 21:33:00,52.0,48.9,30.18,SSW,201,0.0,1.0,89,0.00,,---,0.22,VWS V14.01,2013-01-25 05:33:00,
2013-01-24 21:38:00,52.0,48.9,30.18,SSW,201,0.0,1.0,89,0.00,,---,0.22,VWS V14.01,2013-01-25 05:38:00,
2013-01-24 21:43:00,52.0,48.9,30.18,SSW,200,0.0,1.0,89,0.00,,---,0.22,VWS V14.01,2013-01-25 05:43:00,
2013-01-24 21:48:00,52.0,48.9,30.19,SSW,201,0.0,1.0,89,0.00,,---,0.22,VWS V14.01,2013-01-25 05:48:00,
2013-01-24 21:53:00,52.0,48.9,30.19,SSW,201,0.0,1.0,89,0.00,,---,0.22,VWS V14.01,2013-01-25 05:53:00,
2013-01-24 21:58:00,52.0,48.9,30.19,SSW,201,0.0,1.0,89,0.00,,---,0.22,VWS V14.01,2013-01-25 05:58:00,
2013-01-24 22:04:00,52.0,48.9,30.19,SSW,201,0.0,0.0,89,0.00,,---,0.22,VWS V14.01,2013-01-25 06:04:00,
2013-01-24 22:09:00,52.1,49.0,30.19,SSW,201,0.0,0.0,89,0.00,,---,0.22,VWS V14.01,2013-01-25 06:09:00,
2013-01-24 22:14:00,52.0,48.9,30.20,SSW,200,0.0,0.0,89,0.00,,---,0.22,VWS V14.01,2013-01-25 06:14:00,
2013-01-24 22:19:00,52.0,48.9,30.20,SSW,201,0.0,0.0,89,0.00,,---,0.22,VWS V14.01,2013-01-25 06:19:00,
2013-01-24 22:24:00,52.0,48.9,30.20,SSW,201,0.0,0.0,89,0.00,,---,0.22,VWS V14.01,2013-01-25 06:24:00,
2013-01-24 22:29:00,52.0,48.9,30.20,SSW,200,0.0,0.0,89,0.00,,---,0.22,VWS V14.01,2013-01-25 06:29:00,
2013-01-24 22:34:00,52.0,48.9,30.19,SSW,200,0.0,0.0,89,0.00,,---,0.22,VWS V14.01,2013-01-25 06:34:00,
2013-01-24 22:39:00,52.0,48.9,30.19,SW,222,0.0,0.0,89,0.00,,---,0.22,VWS V14.01,2013-01-25 06:39:00,
2013-01-24 22:44:00,52.1,49.0,30.19,SW,222,0.0,0.0,89,0.00,,---,0.22,VWS V14.01,2013-01-25 06:44:00,
2013-01-24 22:49:00,52.1,49.0,30.19,SW,223,0.0,0.0,89,0.00,,---,0.22,VWS V14.01,2013-01-25 06:49:00,
2013-01-24 22:54:00,52.1,48.7,30.19,West,273,0.0,0.0,88,0.00,,---,0.22,VWS V14.01,2013-01-25 06:54:00,
2013-01-24 22:59:00,52.1,48.7,30.19,West,278,0.0,0.0,88,0.00,,---,0.22,VWS V14.01,2013-01-25 06:59:00,
2013-01-24 23:04:00,52.0,48.6,30.20,NW,321,2.0,2.0,88,0.00,,---,0.22,VWS V14.01,2013-01-25 07:04:00,
2013-01-24 23:09:00,51.9,48.5,30.20,WNW,300,1.0,2.0,88,0.00,,---,0.22,VWS V14.01,2013-01-25 07:09:00,
2013-01-24 23:14:00,51.7,48.3,30.20,NW,314,1.0,2.0,88,0.00,,---,0.22,VWS V14.01,2013-01-25 07:14:00,
2013-01-24 23:19:00,51.6,48.2,30.20,NNW,347,0.0,2.0,88,0.00,,---,0.22,VWS V14.01,2013-01-25 07:19:00,
2013-01-24 23:24:00,51.6,48.2,30.20,WNW,296,1.0,2.0,88,0.00,,---,0.22,VWS V14.01,2013-01-25 07:24:00,
2013-01-24 23:29:00,51.4,48.0,30.20,NW,308,1.0,2.0,88,0.00,,---,0.22,VWS V14.01,2013-01-25 07:29:00,
2013-01-24 23:34:00,51.3,48.2,30.20,North,359,0.0,2.0,89,0.00,,---,0.22,VWS V14.01,2013-01-25 07:34:00,
2013-01-24 23:39:00,51.2,48.1,30.20,North,4,0.0,2.0,89,0.00,,---,0.22,VWS V14.01,2013-01-25 07:39:00,
2013-01-24 23:44:00,51.1,48.0,30.20,North,4,0.0,2.0,89,0.00,,---,0.22,VWS V14.01,2013-01-25 07:44:00,
2013-01-24 23:49:00,51.0,47.9,30.20,North,1,0.0,2.0,89,0.00,,---,0.22,VWS V14.01,2013-01-25 07:49:00,
2013-01-24 23:55:00,51.0,47.9,30.20,North,4,0.0,2.0,89,0.00,,---,0.22,VWS V14.01,2013-01-25 07:55:00,